Temp
56 56 56 56 56 56 56 56 56 56 56 56 57 57 58 58 57 62 73 73 70 72 75 76 76 74 77 76 72 76 76 76 78 71 71 73 69 73 67 71 69 69 68 70 70 65 61 79 78 70 74 78 81 81
55 55 55 55 55 55 55 56 56 56 56 56 56 57 57 58 57 58 73 75 74 68 75 79 80 83 81 81 76 79 75 73 78 75 75 75 69 71 67 64 72 67 74 69 70 70 74 81 78 80 80 80 81 81
55 55 55 55 55 55 55 55 56 56 56 56 56 56 57 56 57 57 69 70 71 69 74 76 78 82 85 83 87 73 81 77 77 78 77 77 67 76 67 68 69 72 74 74 70 75 76 78 81 81 81 83 84 85
54 54 54 55 55 55 55 55 56 56 56 56 56 56 56 56 56 55 67 72 69 70 66 77 84 80 86 86 83 85 83 82 81 80 77 76 73 76 75 72 72 76 73 72 73 76 77 79 80 82 81 83 83 84
54 54 54 54 54 55 55 55 55 56 56 56 56 56 56 55 55 58 68 70 70 66 67 72 82 84 85 84 81 82 81 74 77 74 75 74 78 75 78 76 75 78 76 75 74 79 79 80 82 83 81 82 83 83
54 54 54 54 54 54 55 55 55 55 56 56 56 55 55 54 55 67 67 69 71 70 66 66 81 78 81 81 80 79 79 78 77 78 77 80 79 75 73 73 78 82 81 84 80 82 81 83 84 83 82 83 84 83
54 54 54 54 54 54 55 55 55 55 55 55 56 54 54 54 58 64 65 65 61 71 66 66 72 81 79 80 82 79 75 78 77 77 75 79 78 73 74 69 79 83 84 84 84 81 78 81 80 83 83 83 78 82
53 54 54 54 54 54 54 54 54 54 54 55 55 54 54 54 56 64 71 56 64 68 69 63 68 73 80 77 75 82 74 72 75 76 78 77 75 74 67 77 82 84 84 82 83 85 86 87 84 83 84 83 81 79
53 53 54 54 54 54 54 54 54 54 54 54 54 54 59 61 66 68 58 59 68 65 65 67 65 67 81 78 79 77 79 69 79 68 72 78 74 67 73 76 79 82 82 83 85 84 84 82 82 83 83 82 80 80
53 53 53 53 54 54 54 54 54 54 54 54 55 59 61 69 57 60 63 64 63 67 67 63 73 66 76 77 75 74 76 68 62 73 79 71 70 78 82 83 83 83 84 85 80 78 80 80 80 81 82 84 84 82
53 53 53 53 54 54 54 54 54 53 53 54 56 61 69 59 66 63 59 60 63 59 66 68 69 66 77 67 71 75 67 72 64 70 68 68 69 75 81 80 82 84 84 84 85 85 87 86 83 82 82 84 84 84
53 53 53 53 53 54 54 54 53 56 57 53 55 63 62 61 60 57 60 63 60 61 68 66 71 71 75 75 70 70 65 69 60 73 67 63 72 75 76 79 82 83 83 84 85 83 86 86 86 84 84 83 84 83
53 53 53 53 53 53 54 53 53 54 55 58 60 56 54 58 44 52 52 58 61 67 69 69 68 72 71 72 70 68 61 64 75 65 64 69 73 76 75 76 77 81 82 82 83 84 85 85 86 85 83 84 84 82
52 52 52 53 53 53 53 53 54 54 51 50 54 40 50 52 59 63 64 69 72 72 72 74 67 68 74 67 71 60 70 69 59 60 60 71 71 73 73 76 76 77 80 81 81 81 83 82 83 83 84 84 82 80
52 52 52 53 53 53 53 53 54 55 50 48 52 46 57 66 71 72 73 71 73 74 72 71 67 68 63 62 68 65 59 55 58 59 70 73 70 71 72 75 76 77 78 80 81 81 82 83 82 81 83 83 83 81
53 52 52 54 53 53 53 53 54 52 51 50 49 50 64 64 66 68 70 69 76 73 74 72 60 60 62 67 59 58 60 59 63 71 75 74 70 71 71 74 74 77 78 80 80 81 81 80 81 81 81 82 81 79
52 51 53 53 53 52 53 54 51 48 49 52 54 63 60 63 65 66 72 71 74 70 60 61 57 59 69 61 60 69 65 66 72 74 77 71 70 70 72 74 74 75 76 77 78 79 79 80 81 80 77 78 82 80
51 55 53 53 53 52 53 51 50 50 49 59 59 65 67 67 65 68 70 69 69 64 63 60 65 60 60 58 65 72 75 78 76 74 76 74 72 71 74 73 74 74 74 74 76 77 78 78 79 80 78 78 79 80
53 54 53 53 54 52 47 49 50 48 57 65 66 68 68 68 70 61 63 68 61 69 64 58 56 60 64 69 68 70 76 75 74 74 76 73 72 71 72 75 75 74 74 74 76 80 81 78 81 82 83 82 81 84
53 53 53 54 55 50 49 52 59 53 54 63 66 66 67 67 72 66 64 66 63 63 57 57 61 67 69 72 77 77 76 76 75 74 76 79 79 72 73 75 79 76 77 74 75 59 80 79 80 80 82 81 82 82
52 52 53 53 50 50 50 53 59 62 64 58 67 66 65 69 68 67 66 70 61 61 63 69 71 74 73 77 78 77 75 75 75 76 76 78 78 78 78 78 77 79 78 80 78 76 65 76 81 82 82 81 83 84
51 54 50 51 47 49 49 58 61 66 63 62 59 65 64 63 65 67 68 59 63 68 71 72 74 76 75 70 76 76 76 74 75 75 57 63 75 76 77 79 79 79 79 79 78 77 78 81 82 82 82 83 74 83
54 53 50 49 44 44 49 60 55 60 57 62 63 55 61 63 68 70 64 69 70 74 75 75 74 75 74 75 75 75 75 74 76 78 78 79 80 79 79 79 79 78 79 81 82 82 81 66 72 79 83 81 82 82
53 50 45 45 44 44 54 53 58 59 63 61 59 57 61 63 67 64 63 69 74 74 72 70 73 74 76 73 75 77 79 79 79 80 80 79 79 80 82 82 83 83 83 83 84 81 81 82 70 80 82 81 81 80
41 42 44 39 48 46 48 53 56 57 57 60 57 59 61 66 62 62 59 63 70 72 74 74 75 76 75 77 79 79 78 80 79 79 82 82 81 82 82 83 83 84 85 80 79 81 81 82 83 82 82 82 81 80
38 47 44 51 50 45 54 53 55 57 57 57 54 60 65 62 58 57 59 63 68 70 70 71 71 73 75 78 75 78 79 80 78 77 81 84 82 82 68 72 79 82 87 79 83 83 83 83 81 81 82 79 57 76
40 44 50 52 48 49 51 56 60 61 56 56 59 60 58 55 57 59 67 66 64 66 68 70 70 71 72 74 76 79 81 80 77 78 81 81 83 83 81 77 79 83 88 84 85 84 83 83 81 82 83 84 84 84
47 50 46 49 52 55 53 56 56 56 59 64 64 58 58 58 53 60 63 65 66 65 68 71 73 73 75 75 78 78 80 81 80 79 81 83 84 84 81 83 84 53 77 82 84 84 83 83 84 84 83 83 84 86
51 54 54 48 50 55 56 54 57 63 67 66 60 59 55 55 55 58 60 61 59 58 58 60 70 75 76 78 79 82 82 81 77 73 71 74 78 83 84 83 83 84 84 84 53 65 77 80 83 84 84 85 86 87
52 52 48 48 47 47 50 54 56 60 65 68 65 60 58 58 60 62 63 68 57 60 61 63 72 72 71 72 73 76 80 79 78 74 71 72 75 80 80 80 82 84 85 84 85 83 48 68 68 80 80 84 85 85
50 49 48 48 47 53 57 56 57 58 65 67 69 63 58 57 60 67 66 69 71 69 65 68 71 71 70 70 70 69 73 75 76 75 75 75 77 78 79 80 82 84 83 83 83 85 86 82 84 84 84 83 83 79
48 47 47 46 49 56 60 59 61 59 62 60 62 65 61 60 54 60 66 67 67 65 59 58 63 66 67 70 73 74 51 74 75 75 74 73 74 77 80 83 84 83 83 84 84 84 84 83 84 85 85 84 83 83
52 52 52 52 53 58 63 64 63 62 65 65 66 65 65 60 52 57 69 69 66 66 67 68 70 67 68 70 72 71 62 75 67 48 43 42 40 49 65 75 76 77 79 83 85 85 84 83 83 83 83 80 81 82
MSLP
1025.75 1025.44 1025.17 1024.89 1024.61 1024.34 1024.02 1023.66 1023.29 1022.90 1022.55 1022.15 1021.72 1021.26 1020.73 1020.25 1019.86 1019.12 1017.59 1017.67 1016.83 1014.92 1013.34 1012.86 1012.46 1011.93 1011.11 1010.81 1009.88 1009.84 1009.56 1009.21 1008.61 1007.98 1007.66 1006.99 1007.56 1007.46 1007.64 1007.01 1006.82 1006.34 1005.91 1005.36 1005.92 1005.77 1005.88 1006.55 1006.93 1006.87 1007.35 1007.48 1007.32 1007.60
1025.53 1025.24 1024.93 1024.67 1024.38 1024.10 1023.81 1023.47 1023.10 1022.81 1022.47 1022.12 1021.76 1021.38 1020.95 1020.48 1020.13 1019.70 1017.62 1017.79 1017.70 1016.49 1013.62 1013.18 1012.60 1012.18 1011.68 1011.37 1011.27 1010.47 1009.93 1009.61 1009.12 1008.48 1008.35 1008.35 1007.96 1008.22 1007.81 1007.01 1007.55 1007.10 1006.67 1006.38 1006.55 1006.37 1007.27 1007.25 1007.32 1007.73 1007.77 1007.45 1007.67 1007.98
1025.25 1024.98 1024.68 1024.43 1024.18 1023.91 1023.61 1023.28 1022.92 1022.64 1022.37 1022.04 1021.74 1021.42 1021.02 1020.69 1020.36 1020.07 1018.54 1018.10 1017.18 1015.61 1013.23 1012.27 1011.06 1011.27 1011.56 1011.67 1011.62 1011.12 1009.94 1010.39 1010.07 1010.34 1009.10 1008.53 1008.26 1008.19 1007.23 1007.06 1007.15 1007.33 1007.65 1006.73 1006.95 1006.80 1007.06 1007.36 1007.55 1007.94 1008.10 1007.81 1008.06 1008.31
1024.92 1024.65 1024.39 1024.12 1023.88 1023.60 1023.31 1023.01 1022.67 1022.38 1022.11 1021.82 1021.59 1021.28 1020.93 1020.61 1020.30 1020.25 1018.66 1018.01 1017.70 1016.12 1013.75 1010.84 1010.84 1010.69 1010.70 1010.77 1011.06 1011.00 1010.57 1011.02 1010.74 1010.27 1009.28 1008.39 1007.96 1008.48 1007.40 1007.48 1007.08 1006.97 1007.52 1006.73 1006.46 1006.72 1007.02 1007.18 1007.49 1007.73 1008.21 1008.40 1008.53 1008.70
1024.48 1024.25 1023.98 1023.73 1023.47 1023.18 1022.93 1022.67 1022.41 1022.11 1021.81 1021.52 1021.34 1021.09 1020.75 1020.45 1020.14 1019.88 1018.53 1018.03 1017.91 1017.07 1014.03 1011.57 1010.52 1009.98 1009.94 1010.13 1010.49 1010.82 1010.81 1011.07 1010.40 1009.63 1009.08 1008.24 1008.44 1008.51 1008.04 1007.54 1006.22 1006.70 1006.20 1005.89 1005.28 1006.27 1006.47 1006.53 1007.34 1007.80 1008.08 1008.35 1008.61 1008.80
1023.95 1023.73 1023.46 1023.26 1023.04 1022.76 1022.53 1022.35 1022.12 1021.82 1021.53 1021.30 1021.07 1020.85 1020.57 1020.26 1019.91 1018.73 1017.34 1017.86 1017.78 1017.52 1015.49 1012.00 1010.24 1009.87 1009.88 1009.96 1010.08 1010.29 1010.48 1010.59 1010.48 1009.15 1008.45 1008.42 1008.58 1008.67 1007.29 1006.13 1006.10 1006.14 1006.39 1006.18 1006.16 1006.78 1006.79 1007.04 1007.41 1007.87 1008.09 1008.35 1008.69 1009.03
1023.39 1023.19 1022.95 1022.74 1022.54 1022.32 1022.13 1021.94 1021.76 1021.53 1021.26 1020.98 1020.75 1020.56 1020.33 1020.07 1019.68 1018.49 1018.01 1018.14 1018.22 1017.55 1015.50 1012.54 1010.09 1009.52 1009.76 1009.56 1009.30 1009.82 1010.62 1010.12 1009.82 1009.01 1008.40 1007.80 1008.16 1008.78 1007.36 1006.36 1005.87 1005.84 1005.97 1006.16 1006.46 1006.85 1006.90 1007.16 1007.21 1007.88 1008.20 1008.66 1009.30 1009.57
1022.78 1022.59 1022.42 1022.22 1022.02 1021.83 1021.67 1021.51 1021.36 1021.21 1020.99 1020.66 1020.38 1020.22 1020.06 1019.71 1019.43 1018.18 1017.29 1018.23 1018.12 1016.91 1015.50 1012.93 1010.40 1009.47 1009.50 1008.50 1008.36 1008.91 1009.48 1009.83 1009.14 1008.35 1008.14 1007.45 1007.88 1008.03 1006.99 1006.35 1005.89 1005.64 1005.85 1006.11 1006.27 1006.49 1006.22 1006.45 1007.16 1007.81 1008.28 1008.71 1009.10 1009.54
1022.09 1021.90 1021.77 1021.61 1021.47 1021.36 1021.21 1021.08 1020.97 1020.87 1020.67 1020.41 1020.14 1019.84 1019.28 1018.88 1017.54 1017.22 1017.66 1018.05 1017.79 1017.25 1014.42 1012.56 1010.49 1008.82 1009.16 1008.52 1008.55 1008.65 1008.50 1008.09 1008.23 1008.05 1007.54 1006.78 1006.26 1005.98 1006.03 1005.88 1005.55 1005.45 1005.37 1005.47 1005.68 1006.10 1006.37 1006.66 1007.06 1007.51 1007.99 1008.39 1008.84 1009.30
1021.40 1021.22 1021.13 1020.97 1020.87 1020.81 1020.75 1020.63 1020.59 1020.57 1020.44 1020.26 1020.01 1018.96 1017.36 1016.86 1017.88 1017.97 1017.63 1016.82 1016.80 1015.51 1014.59 1012.42 1010.90 1009.72 1009.37 1008.37 1007.78 1008.11 1007.90 1007.64 1007.53 1006.61 1006.46 1006.48 1005.78 1005.50 1005.17 1005.17 1005.11 1005.29 1005.28 1005.47 1005.52 1005.78 1006.04 1006.32 1006.77 1007.26 1007.69 1008.05 1008.44 1008.95
1020.67 1020.47 1020.38 1020.33 1020.27 1020.25 1020.27 1020.25 1020.23 1020.37 1020.32 1019.91 1019.01 1017.42 1016.87 1017.65 1017.16 1016.57 1015.30 1014.70 1013.93 1013.37 1012.45 1011.33 1010.60 1009.82 1009.37 1009.04 1007.93 1008.32 1007.56 1007.28 1006.76 1006.14 1006.40 1005.46 1004.75 1004.58 1004.57 1004.79 1004.91 1004.94 1005.16 1005.25 1005.33 1005.33 1005.36 1005.61 1006.41 1007.05 1007.56 1007.88 1008.28 1008.76
1019.79 1019.59 1019.56 1019.56 1019.58 1019.63 1019.71 1019.85 1019.99 1020.07 1019.50 1019.57 1019.19 1017.93 1017.47 1016.46 1015.75 1014.77 1013.33 1012.82 1012.24 1010.87 1010.51 1010.29 1009.76 1010.01 1009.44 1009.67 1008.96 1008.81 1008.17 1007.98 1006.82 1006.94 1006.33 1005.00 1004.49 1005.11 1004.98 1004.62 1004.68 1004.79 1004.86 1004.90 1005.20 1005.45 1005.30 1005.70 1006.23 1006.78 1007.27 1007.81 1008.25 1008.82
1018.82 1018.68 1018.67 1018.80 1018.87 1019.02 1019.21 1019.43 1019.59 1019.67 1019.67 1018.93 1018.30 1017.20 1016.34 1015.31 1014.49 1012.83 1011.37 1010.71 1009.97 1009.92 1009.74 1009.82 1009.41 1009.50 1009.82 1009.70 1008.89 1008.59 1008.00 1007.14 1007.19 1006.33 1005.28 1004.65 1005.09 1005.38 1005.46 1005.34 1005.08 1004.82 1004.72 1004.76 1005.08 1005.40 1005.63 1005.87 1006.20 1006.62 1007.13 1007.67 1008.19 1008.78
1017.80 1017.80 1017.90 1018.00 1018.20 1018.43 1018.69 1019.07 1019.48 1019.86 1019.85 1018.59 1017.05 1016.19 1015.08 1013.29 1011.63 1010.12 1009.61 1008.93 1008.95 1009.33 1009.19 1009.30 1009.43 1009.11 1008.91 1008.93 1008.22 1008.12 1007.56 1007.53 1006.61 1005.42 1005.08 1004.87 1005.75 1005.87 1005.87 1005.55 1005.23 1004.74 1004.66 1004.67 1005.00 1005.42 1005.62 1006.01 1006.32 1006.78 1007.12 1007.51 1008.09 1008.56
1017.00 1017.08 1017.15 1017.32 1017.63 1017.90 1018.33 1018.86 1019.40 1019.52 1018.96 1017.94 1016.48 1014.41 1012.47 1010.95 1010.18 1009.80 1009.56 1009.35 1009.19 1009.37 1009.25 1009.00 1009.41 1009.25 1009.13 1008.88 1008.21 1007.90 1007.44 1006.89 1006.57 1005.77 1005.16 1005.79 1006.32 1006.23 1006.02 1005.67 1005.22 1004.90 1004.90 1004.85 1005.02 1005.34 1005.65 1005.88 1006.25 1006.76 1007.13 1007.46 1007.86 1008.32
1016.35 1016.50 1016.39 1016.67 1017.13 1017.63 1018.14 1018.90 1019.21 1019.25 1018.29 1017.10 1015.76 1013.64 1011.28 1010.49 1009.56 1009.41 1009.29 1009.07 1009.23 1009.26 1009.42 1009.48 1009.42 1009.00 1008.40 1007.87 1007.85 1007.23 1006.35 1005.73 1005.65 1005.68 1005.93 1006.23 1006.41 1006.48 1006.41 1006.09 1005.80 1005.41 1005.29 1005.29 1005.21 1005.53 1005.86 1006.08 1006.33 1006.66 1007.19 1007.41 1007.87 1008.32
1015.72 1015.46 1015.61 1016.34 1016.99 1017.61 1018.20 1018.42 1018.68 1018.28 1017.08 1015.22 1013.49 1012.30 1011.53 1010.50 1009.48 1009.52 1009.51 1009.55 1009.83 1009.43 1009.40 1009.50 1009.14 1008.54 1008.14 1007.61 1006.93 1006.26 1005.68 1005.74 1005.92 1006.10 1006.25 1006.87 1007.00 1006.92 1006.78 1006.52 1006.32 1006.11 1005.98 1006.00 1006.04 1006.09 1006.20 1006.42 1006.66 1006.96 1007.24 1007.64 1007.70 1008.22
1015.03 1014.93 1015.58 1016.39 1017.00 1017.83 1018.22 1018.01 1017.56 1016.78 1015.26 1013.36 1011.99 1010.57 1010.39 1010.11 1009.97 1009.58 1009.89 1010.21 1009.83 1009.74 1009.70 1009.49 1009.45 1008.68 1007.76 1007.01 1006.18 1005.87 1005.90 1005.96 1006.23 1006.45 1006.52 1006.95 1007.24 1007.33 1007.13 1006.99 1006.93 1006.82 1006.74 1006.72 1006.73 1006.70 1006.67 1006.69 1006.77 1006.81 1007.19 1007.53 1007.78 1007.86
1014.57 1014.93 1015.64 1016.26 1016.70 1017.02 1017.23 1017.24 1016.76 1015.09 1013.14 1011.62 1010.99 1010.45 1010.24 1009.89 1009.84 1010.53 1010.45 1010.53 1010.60 1010.35 1010.01 1009.87 1009.50 1008.12 1007.16 1006.74 1006.58 1006.38 1006.11 1006.37 1006.28 1006.54 1006.68 1007.09 1007.36 1007.44 1007.43 1007.18 1007.12 1007.01 1007.00 1007.03 1006.95 1006.65 1006.67 1006.89 1006.78 1006.79 1006.76 1006.93 1007.05 1006.96
1014.75 1015.21 1015.74 1016.19 1016.45 1016.42 1015.98 1015.50 1015.22 1013.89 1011.87 1010.61 1010.31 1009.62 1009.48 1009.36 1009.08 1009.78 1010.02 1010.12 1010.06 1010.20 1009.74 1009.04 1008.13 1007.47 1006.96 1006.62 1006.56 1006.58 1006.67 1006.67 1006.49 1006.18 1006.25 1006.38 1006.82 1007.25 1007.21 1007.09 1006.74 1006.96 1006.92 1007.06 1007.01 1006.98 1006.67 1006.67 1006.74 1006.77 1006.63 1006.60 1006.59 1006.50
1015.06 1015.47 1016.21 1016.68 1016.85 1016.32 1015.22 1014.00 1012.81 1011.73 1010.76 1010.21 1009.07 1009.10 1008.89 1008.85 1008.75 1008.70 1009.11 1009.41 1009.72 1009.22 1008.23 1007.70 1007.09 1006.87 1007.02 1006.62 1006.81 1006.76 1006.75 1006.79 1006.51 1006.35 1006.17 1006.12 1006.64 1006.76 1006.73 1006.74 1006.84 1006.62 1006.47 1006.28 1006.33 1006.39 1006.80 1006.49 1006.19 1006.30 1006.26 1006.41 1006.35 1006.35
1015.13 1015.50 1016.25 1017.04 1016.62 1015.64 1014.42 1013.01 1011.51 1010.52 1010.23 1009.29 1009.16 1008.61 1008.05 1007.93 1007.86 1007.85 1008.23 1008.91 1008.17 1007.40 1007.14 1006.73 1006.46 1006.31 1006.40 1006.79 1006.39 1006.56 1006.54 1006.67 1006.55 1006.43 1006.75 1006.71 1006.32 1006.21 1006.19 1006.08 1006.11 1005.92 1005.92 1006.02 1006.08 1006.05 1005.97 1005.89 1005.97 1006.08 1006.09 1005.98 1006.43 1006.25
1015.15 1015.48 1016.06 1016.42 1016.24 1014.81 1012.99 1011.93 1011.16 1010.00 1008.98 1008.11 1008.46 1008.31 1007.60 1007.26 1007.13 1007.68 1007.32 1006.69 1006.41 1006.24 1006.21 1006.18 1006.17 1006.30 1006.32 1006.33 1006.40 1006.32 1006.33 1006.32 1005.87 1005.58 1005.59 1005.60 1005.56 1005.68 1005.69 1005.72 1005.78 1005.60 1005.28 1005.04 1005.33 1005.36 1005.39 1005.75 1005.89 1006.02 1005.63 1005.97 1005.90 1005.83
1015.02 1015.27 1015.59 1015.53 1015.17 1013.62 1012.23 1011.02 1010.22 1009.20 1008.30 1007.84 1007.68 1007.46 1006.81 1006.77 1007.13 1006.85 1006.15 1005.78 1005.74 1006.04 1005.99 1006.10 1006.04 1005.76 1005.59 1005.76 1005.52 1005.17 1005.20 1005.41 1005.33 1005.09 1005.07 1005.08 1004.80 1004.72 1004.90 1004.77 1004.62 1004.66 1004.82 1004.79 1004.86 1005.06 1005.14 1005.17 1005.38 1005.55 1005.44 1005.32 1005.42 1005.47
1015.35 1015.28 1014.91 1014.06 1013.54 1012.98 1011.34 1009.85 1008.98 1008.39 1007.41 1007.17 1007.17 1006.73 1006.54 1006.82 1006.31 1006.05 1006.12 1006.17 1005.97 1005.76 1005.76 1005.72 1005.52 1005.28 1004.99 1004.75 1004.66 1004.63 1004.96 1004.89 1004.56 1004.27 1004.13 1004.36 1004.31 1004.17 1004.10 1004.08 1004.06 1004.07 1004.21 1004.79 1004.65 1004.46 1004.50 1004.58 1004.66 1004.66 1004.66 1004.87 1005.05 1005.02
1014.27 1013.66 1013.40 1012.41 1012.13 1011.85 1010.05 1008.58 1008.02 1007.30 1007.03 1006.85 1007.19 1006.75 1006.52 1006.43 1006.24 1005.99 1006.54 1006.87 1006.48 1006.48 1006.41 1006.20 1005.99 1005.56 1005.15 1004.94 1004.93 1004.60 1004.79 1005.10 1004.86 1004.45 1003.96 1003.96 1003.96 1003.79 1004.53 1004.12 1003.41 1003.02 1003.51 1004.09 1003.95 1003.66 1003.62 1003.93 1004.17 1004.08 1004.10 1004.39 1005.17 1005.19
1013.32 1012.52 1012.27 1012.18 1011.87 1011.11 1009.77 1008.37 1007.52 1006.81 1006.62 1006.46 1006.41 1006.39 1006.59 1006.40 1006.28 1007.07 1007.26 1007.66 1007.63 1007.69 1007.41 1007.00 1006.71 1006.20 1005.66 1005.33 1005.18 1005.01 1005.10 1005.09 1004.98 1004.60 1004.48 1004.31 1004.03 1003.94 1003.92 1003.82 1003.28 1003.22 1003.25 1003.58 1003.50 1003.44 1003.35 1003.34 1003.74 1003.68 1003.57 1003.53 1003.56 1003.72
1012.27 1011.87 1011.44 1011.25 1010.74 1010.00 1008.89 1008.06 1007.39 1006.73 1006.32 1006.19 1006.21 1006.17 1006.37 1006.80 1008.19 1008.49 1008.52 1008.82 1008.62 1008.52 1007.87 1007.14 1006.69 1006.37 1005.75 1005.53 1005.22 1005.06 1004.91 1004.82 1004.69 1004.58 1004.19 1003.83 1003.50 1003.57 1003.83 1003.64 1003.57 1004.14 1004.08 1003.72 1003.59 1003.47 1003.59 1003.60 1003.42 1003.27 1003.20 1003.16 1003.06 1003.18
1011.42 1011.22 1011.10 1010.72 1010.30 1009.49 1008.85 1008.40 1007.68 1006.98 1006.50 1006.13 1006.04 1006.74 1008.04 1008.99 1009.60 1009.46 1009.44 1009.40 1009.31 1008.89 1008.49 1007.96 1007.03 1006.18 1005.56 1005.43 1005.31 1005.12 1004.95 1004.51 1004.27 1004.18 1004.07 1003.65 1003.06 1002.80 1003.42 1003.36 1003.16 1002.99 1002.97 1002.88 1003.80 1003.84 1004.01 1003.92 1003.80 1003.63 1003.22 1002.92 1002.79 1002.81
1010.87 1011.02 1010.80 1010.44 1010.11 1009.45 1008.98 1008.61 1008.03 1007.54 1007.04 1006.39 1006.97 1007.91 1008.74 1009.48 1009.91 1009.94 1009.68 1009.13 1009.15 1008.96 1008.67 1008.29 1007.19 1006.68 1006.37 1005.91 1005.50 1005.20 1005.03 1005.04 1004.99 1005.13 1004.97 1004.54 1004.04 1003.83 1003.63 1003.36 1003.05 1002.80 1002.64 1002.71 1002.90 1003.34 1004.27 1004.02 1003.82 1003.69 1003.52 1002.85 1002.52 1002.39
1010.96 1010.71 1010.38 1010.05 1009.47 1008.91 1008.51 1008.47 1008.30 1007.95 1007.03 1006.58 1006.72 1007.40 1008.39 1009.50 1010.10 1009.78 1009.64 1009.29 1008.82 1008.91 1008.84 1008.07 1007.41 1007.26 1007.13 1006.78 1006.42 1006.04 1005.38 1005.61 1005.66 1005.66 1005.91 1005.44 1004.68 1004.08 1003.72 1003.45 1003.10 1002.74 1002.59 1002.54 1002.53 1002.45 1002.42 1002.76 1002.55 1002.36 1002.19 1002.08 1001.91 1002.17
1010.48 1010.08 1009.73 1009.35 1008.69 1007.91 1007.58 1007.44 1007.22 1007.24 1006.70 1006.60 1006.88 1007.42 1008.51 1008.81 1009.62 1010.05 1010.21 1009.79 1009.23 1009.09 1009.08 1009.16 1008.70 1008.12 1008.18 1007.72 1007.09 1006.72 1006.80 1006.29 1005.86 1005.62 1005.56 1005.46 1004.93 1004.30 1003.71 1003.17 1002.85 1002.57 1002.31 1002.15 1002.05 1001.92 1001.80 1001.90 1001.60 1001.36 1001.23 1001.41 1001.53 1001.70
1009.62 1009.37 1009.02 1008.66 1008.15 1007.17 1006.54 1006.14 1006.27 1006.47 1006.43 1006.52 1006.73 1007.25 1007.89 1008.65 1010.03 1010.68 1010.41 1010.23 1010.02 1009.68 1009.34 1009.01 1008.63 1008.30 1008.08 1007.72 1007.28 1007.06 1006.77 1006.38 1006.17 1005.99 1005.90 1005.73 1005.73 1005.44 1004.78 1004.05 1003.52 1003.14 1002.62 1001.97 1001.56 1001.30 1001.31 1001.26 1001.15 1001.15 1001.23 1001.45 1001.47 1001.38
Wind_Speed
13 13 13 12 13 14 14 14 15 14 15 16 17 17 18 12 12 8 3 4 6 4 8 7 8 9 6 5 6 6 6 7 5 7 6 2 7 1 6 4 5 8 6 6 2 5 7 4 7 6 6 4 5 6
13 14 13 13 13 14 14 14 13 13 13 14 15 17 17 12 10 10 2 1 4 6 7 7 12 13 13 9 7 3 6 4 5 4 3 1 4 3 5 8 4 5 4 6 5 7 4 2 3 4 4 5 6 6
13 13 13 13 13 13 14 14 13 12 12 13 14 14 15 13 6 7 5 4 4 5 8 6 4 6 10 16 14 6 4 3 2 4 4 3 5 3 5 6 4 4 2 4 5 5 3 4 5 2 2 7 8 8
13 13 13 13 13 13 14 13 13 12 12 10 13 14 15 13 6 4 5 3 4 5 6 1 4 6 2 8 15 16 7 2 3 4 4 4 4 3 2 4 7 5 6 3 5 4 3 6 6 7 8 7 8 7
13 14 13 13 13 13 13 13 12 13 12 10 13 14 15 13 9 7 7 5 5 6 6 8 15 3 4 10 12 13 12 7 7 4 5 5 2 4 1 4 6 6 5 5 5 4 4 9 10 9 9 9 9 7
13 14 13 13 13 13 13 12 12 13 12 11 12 12 14 13 8 7 5 4 4 4 5 5 5 2 2 7 11 11 8 7 6 4 6 3 0 5 5 3 3 5 4 6 3 2 4 0 8 8 8 8 7 5
14 14 14 13 14 14 13 12 12 11 11 11 11 11 12 12 4 5 6 5 1 3 5 6 3 4 2 4 6 5 8 5 7 6 6 10 6 4 6 9 5 4 4 5 4 4 5 8 7 10 10 10 6 5
14 14 14 15 15 14 13 12 12 11 11 12 9 10 12 9 10 7 1 13 5 5 4 5 4 5 0 6 8 4 6 5 5 6 6 8 6 5 8 13 11 10 6 6 8 10 5 6 8 12 11 10 9 6
15 15 15 14 14 14 13 12 11 10 10 11 11 12 5 5 4 3 6 9 4 5 4 4 4 2 0 3 3 5 4 5 3 5 12 12 9 8 10 13 12 13 12 12 9 9 8 9 12 13 13 12 10 9
16 15 14 14 13 12 12 10 10 8 9 8 4 4 4 3 14 8 7 6 5 5 5 6 4 6 3 0 3 3 5 6 7 7 2 6 13 17 15 16 14 11 8 8 8 10 11 11 13 14 15 13 10 9
16 16 15 14 14 13 11 9 7 6 6 3 3 3 5 5 5 4 4 5 5 5 6 5 6 7 5 7 3 0 3 1 6 5 5 8 10 11 14 14 13 13 11 11 11 10 13 13 12 13 13 13 10 9
17 16 15 15 14 12 11 9 6 5 1 3 4 4 3 4 5 5 5 4 6 4 6 5 1 4 2 3 5 2 3 2 5 3 4 7 2 6 6 7 6 8 11 14 10 8 10 11 10 12 13 12 11 9
17 15 14 14 13 12 10 9 11 6 5 4 4 3 3 3 3 7 8 5 4 5 5 5 4 3 4 6 4 2 5 5 0 5 6 5 7 6 6 6 7 9 11 12 12 12 11 10 10 10 11 12 8 8
15 15 13 12 12 11 10 10 9 6 3 3 6 3 6 6 7 6 6 1 4 3 4 2 2 5 3 6 3 4 2 3 4 4 5 4 7 8 7 6 6 5 9 12 12 12 13 12 10 9 9 9 9 9
13 12 11 11 11 10 11 11 12 3 2 4 4 5 9 7 2 2 2 3 4 3 4 3 3 2 3 3 4 2 3 3 4 5 5 6 6 7 7 6 4 3 7 9 10 11 11 11 8 7 8 8 9 7
11 7 6 10 13 12 14 12 4 1 3 4 5 5 6 5 7 6 5 5 0 4 3 2 2 4 5 3 4 5 3 4 2 4 5 4 7 7 7 6 6 5 5 7 9 8 7 7 7 7 8 7 7 8
11 3 12 14 14 16 16 4 3 4 5 5 6 8 9 7 3 3 1 2 2 4 4 3 4 2 0 4 4 3 5 5 4 2 3 4 6 7 8 7 6 6 6 5 5 7 8 8 8 7 7 6 6 7
2 5 16 18 14 11 2 2 3 5 7 8 6 6 7 5 4 4 4 4 2 2 1 1 0 3 3 3 2 2 2 2 3 3 2 2 3 5 6 5 5 5 5 5 5 5 6 6 5 4 4 5 5 6
5 10 20 21 9 4 5 4 3 5 9 6 8 6 4 5 4 2 1 1 0 3 1 2 5 6 6 5 4 7 1 3 3 3 2 3 3 3 4 3 2 3 4 3 2 1 3 0 3 2 4 4 7 7
11 19 23 20 8 3 5 4 5 5 4 5 9 9 7 7 3 6 7 3 1 2 3 4 4 3 4 4 2 1 3 4 4 4 1 2 2 4 3 4 2 0 2 3 3 2 4 4 4 4 5 4 5 6
6 9 18 10 1 3 4 3 7 4 4 4 6 10 7 7 7 6 4 2 2 4 5 7 7 7 7 8 3 3 4 5 6 5 3 1 3 0 2 4 5 4 4 4 4 3 3 5 4 4 4 6 5 6
4 8 3 1 2 4 4 5 4 1 4 3 3 6 6 9 9 8 5 5 6 9 8 7 5 6 4 6 6 5 5 6 7 5 2 3 5 6 5 5 4 5 4 4 4 5 5 5 5 5 5 4 3 5
8 2 3 2 3 4 5 3 6 5 6 4 4 1 4 3 2 4 5 7 8 9 8 9 10 9 8 7 7 7 7 7 7 7 5 6 4 5 5 5 5 6 6 6 4 5 4 1 3 7 5 5 5 5
3 3 4 5 7 5 3 5 4 4 5 6 5 6 5 5 5 5 4 2 1 2 5 5 6 7 7 8 8 8 7 6 7 6 5 6 6 6 6 6 6 6 5 4 3 4 5 5 4 7 7 7 6 6
4 5 5 5 3 4 5 5 6 6 7 8 5 3 3 4 4 4 3 1 3 3 2 3 5 4 5 4 4 3 4 6 7 7 4 5 6 5 6 6 7 8 5 7 8 7 6 6 7 8 7 8 8 7
4 6 5 4 3 4 5 6 6 8 5 5 2 3 3 3 4 3 3 4 4 5 5 5 5 5 4 2 4 3 3 3 4 6 5 4 6 5 2 7 7 6 7 4 8 8 8 7 8 10 9 8 6 7
3 5 5 3 3 4 6 4 3 5 4 4 3 4 3 5 2 4 4 5 4 5 5 4 4 6 6 6 5 3 2 2 4 5 5 5 5 5 6 7 7 5 2 6 7 8 9 9 9 10 9 8 7 8
3 3 2 3 6 4 4 2 4 5 5 3 3 4 1 3 4 2 5 6 5 7 7 6 4 4 4 4 4 4 3 3 4 5 6 7 7 5 6 7 5 4 6 8 9 6 7 8 9 9 9 9 7 6
4 3 3 3 4 4 2 1 2 2 2 3 2 3 4 3 3 3 3 5 4 3 5 6 6 5 3 2 1 1 2 3 4 4 5 6 5 2 2 4 5 6 5 6 9 9 5 6 6 6 7 7 6 6
2 2 2 1 2 2 2 4 3 5 3 3 4 4 4 3 4 4 4 4 4 6 4 5 5 6 6 6 5 5 4 4 4 6 7 8 8 8 7 6 5 6 4 5 7 7 3 6 5 7 7 7 6 6
1 2 2 2 3 3 3 2 3 2 5 4 7 9 7 5 2 4 5 4 4 5 8 9 8 7 7 7 7 6 5 5 9 9 8 9 9 8 7 6 6 5 5 6 6 8 8 8 8 9 9 9 8 7
2 2 2 2 3 3 5 6 6 3 6 4 6 6 5 5 4 3 6 7 7 8 6 6 8 8 9 8 6 5 3 8 7 8 11 9 9 9 8 6 5 6 7 7 7 8 8 10 9 9 9 10 8 7
2 3 3 2 3 2 4 3 4 3 3 3 4 5 6 5 5 2 3 5 6 6 9 9 9 6 7 7 6 7 7 9 10 10 7 8 8 9 8 6 5 6 9 9 8 7 10 12 11 11 9 7 9 7
Wind_Direction
328 331 331 329 333 329 331 332 334 338 340 340 341 345 345 347 354 334 29 6 326 301 289 252 261 263 237 238 280 56 252 187 244 258 281 299 269 79 264 278 285 255 246 212 242 261 223 99 143 252 47 101 99 136
318 324 328 327 324 324 326 324 322 328 334 338 339 338 339 339 345 330 287 5 317 262 305 305 279 274 264 278 302 250 336 311 1 270 217 268 220 217 317 268 187 244 331 354 318 37 69 173 35 106 7 103 118 128
311 313 317 317 317 317 315 317 321 319 324 332 333 329 335 335 336 336 316 334 249 270 262 231 221 204 230 240 249 265 159 2 157 346 331 347 263 267 248 218 271 181 220 260 261 137 183 193 199 241 195 124 132 117
305 307 308 308 309 308 308 310 313 315 311 323 329 326 331 325 305 302 301 343 279 289 281 72 162 236 242 234 216 226 261 230 321 293 278 276 276 204 339 355 284 39 172 205 243 192 211 187 196 157 155 136 134 123
299 299 298 300 302 305 307 305 307 313 317 309 325 319 325 320 308 281 266 265 264 289 321 307 300 303 241 211 203 215 235 249 268 241 232 247 19 242 208 274 235 182 160 234 59 106 275 140 160 165 165 161 156 138
298 297 296 298 298 301 304 303 302 305 311 304 318 313 317 318 312 276 220 165 221 222 275 289 17 257 240 199 211 217 222 219 235 244 245 190 353 257 261 259 36 186 221 266 22 9 165 229 156 173 178 163 161 118
291 294 292 293 293 295 295 295 297 298 300 301 313 304 307 310 273 275 353 28 213 227 258 280 271 135 249 232 200 174 200 222 231 228 254 262 175 234 269 268 242 215 240 228 234 203 187 183 178 174 163 144 139 111
285 285 285 287 287 288 288 289 290 292 293 299 296 297 298 296 267 257 190 192 233 269 257 275 275 246 144 223 204 191 171 210 220 237 241 261 139 224 254 260 268 271 240 232 218 218 279 186 166 167 161 155 149 148
282 283 281 281 283 284 283 285 283 285 291 300 309 297 272 216 230 53 119 146 213 295 287 243 278 356 179 236 269 185 245 228 156 219 232 246 249 221 244 242 255 260 233 233 203 217 199 187 179 174 173 166 160 153
278 278 279 277 277 278 274 276 280 280 294 310 281 229 213 105 113 156 190 182 184 205 225 259 264 257 304 221 193 270 194 226 227 229 223 241 257 267 257 251 256 251 241 224 214 205 206 202 188 185 189 180 178 169
273 271 270 271 272 273 273 266 267 276 252 227 223 237 51 138 214 235 208 221 177 220 206 232 253 263 203 258 304 259 313 242 251 227 244 249 244 251 246 248 247 243 237 242 240 275 209 177 182 192 196 191 194 186
270 266 264 263 263 262 257 242 225 224 256 329 299 270 259 224 211 236 207 172 229 240 167 232 210 218 218 234 251 188 250 246 253 149 244 246 157 40 331 254 238 232 243 233 223 222 179 166 173 189 196 199 205 203
267 262 257 255 253 247 241 218 206 270 333 270 222 230 220 180 209 227 193 204 209 179 188 195 213 216 171 228 234 244 237 231 183 224 241 267 63 5 337 312 275 255 242 212 196 190 188 172 165 181 192 203 203 200
265 257 248 244 240 227 216 199 183 162 234 236 197 229 224 196 237 205 218 182 108 214 183 261 252 222 186 190 230 236 204 253 266 242 252 34 6 335 326 308 279 255 208 186 174 184 181 179 180 190 207 188 194 197
254 246 236 235 216 203 183 169 164 189 230 238 232 229 212 247 239 212 253 248 209 254 250 232 249 291 196 225 219 278 235 217 216 247 23 16 345 336 337 336 328 211 178 178 168 176 186 182 169 172 184 184 193 184
239 230 213 180 183 172 149 152 158 227 242 234 230 264 247 241 222 202 222 237 249 235 218 248 254 226 200 215 202 224 239 234 121 31 33 18 13 14 8 6 26 53 136 161 150 155 163 157 162 154 160 165 166 175
206 213 176 164 155 143 151 149 172 217 249 227 226 228 272 292 280 161 141 46 284 218 200 202 214 216 99 214 231 214 254 26 26 32 8 15 349 354 2 17 30 53 70 83 110 137 130 131 138 148 152 163 184 181
194 164 149 146 137 134 172 232 216 225 236 233 242 221 218 244 258 164 119 39 289 183 231 187 55 242 243 276 302 94 341 30 6 338 330 15 354 7 6 21 37 52 74 86 109 124 133 142 166 175 155 172 196 199
157 152 151 149 155 153 168 187 227 247 227 244 225 249 233 256 231 235 285 177 193 332 248 153 212 229 238 246 268 328 11 9 15 20 354 239 271 305 328 353 71 71 71 74 112 143 113 223 314 257 239 201 233 210
151 155 159 167 172 206 198 170 206 253 266 223 225 235 216 245 243 196 203 197 212 249 209 203 240 262 280 315 234 238 331 338 318 286 262 176 198 205 237 286 298 66 216 206 232 293 236 238 222 222 239 244 249 235
126 161 161 165 280 274 280 209 200 231 250 238 228 214 227 214 230 214 209 155 191 220 230 217 235 225 238 282 278 276 284 283 287 301 328 263 141 190 207 207 219 235 244 246 258 248 233 255 248 237 223 230 227 245
94 112 100 118 273 255 249 242 262 256 229 238 217 208 215 218 227 230 177 185 236 237 243 263 254 271 240 263 277 254 274 267 247 246 243 204 242 213 227 233 220 246 249 257 260 252 240 238 230 233 234 228 207 246
108 116 93 113 272 253 257 212 218 215 222 202 138 291 227 198 202 138 224 227 235 236 241 243 249 253 267 271 262 253 238 241 254 235 232 252 247 239 235 226 233 254 264 253 211 246 257 24 189 244 210 212 239 248
117 114 157 206 206 267 268 220 215 227 220 209 190 215 205 200 159 216 242 230 12 314 233 226 232 237 227 231 252 256 242 219 249 250 238 239 244 231 233 253 246 239 246 292 267 239 232 224 196 199 230 234 229 239
126 200 225 232 215 237 245 205 197 213 209 200 207 199 184 186 212 206 197 222 40 38 59 212 239 256 273 280 292 267 209 243 249 260 233 224 259 267 253 245 245 255 198 210 220 220 230 229 216 226 230 236 247 259
216 201 218 214 162 223 241 210 199 206 196 147 205 243 192 221 224 175 89 26 34 24 7 359 342 316 286 271 301 315 38 315 277 261 261 249 257 272 240 269 285 229 210 210 264 266 251 221 239 234 226 226 213 259
266 223 193 201 261 279 263 238 218 175 161 177 181 205 210 221 136 85 103 40 30 10 341 323 322 308 303 302 297 289 291 271 267 308 322 287 280 278 284 289 300 321 223 232 256 261 255 233 219 239 243 239 236 225
254 255 242 208 228 229 288 217 173 176 197 167 226 208 212 31 66 16 46 14 2 345 336 333 342 323 308 294 279 267 262 286 273 268 258 248 243 253 239 261 264 86 273 279 279 254 245 244 243 240 241 244 246 229
244 210 265 276 254 255 250 264 295 253 347 276 243 101 84 58 13 0 10 18 353 356 14 354 348 330 10 87 74 310 309 303 330 322 320 311 314 339 26 306 274 243 239 258 189 249 306 280 265 265 246 242 244 250
265 103 253 128 273 247 273 207 296 303 295 318 97 115 102 91 44 43 18 53 28 356 350 292 355 3 7 2 7 14 50 15 26 354 330 319 325 326 309 293 279 271 263 267 250 180 195 231 209 234 237 242 235 228
296 263 223 225 248 233 224 244 240 252 219 138 124 117 119 129 138 66 33 6 11 45 12 2 7 14 5 4 4 353 359 13 348 331 338 315 302 300 297 290 286 277 268 260 260 246 217 204 230 235 238 243 250 242
207 248 275 258 271 252 205 202 181 171 163 146 146 132 151 156 90 49 12 356 3 2 30 16 338 349 340 332 320 339 349 313 322 343 336 331 317 310 295 280 301 298 277 256 248 251 226 232 248 247 243 246 257 262
234 221 229 250 232 304 21 25 84 117 95 76 60 91 74 52 80 38 3 5 351 343 344 339 332 322 298 297 317 326 329 330 330 297 273 281 275 289 303 287 281 268 268 267 262 250 234 240 252 258 252 249 244 232